Location: Carrer del Canonge
(41.4901°N, 2.2931°E)
Time: 10:46:47
(UTC+00:00)

Cosmos 494 Rocket - Visible Passes

Search period start: 17 January 2021 00:00
Search period end: 27 January 2021 00:00
Orbit: 743 x 770 km, 74.1° (Epoch: 16 January)

Date Brightness Start Highest point End Pass type
(mag) Time Alt. Az. Time Alt. Az. Time Alt. Az.
24 Jan 6.5 19:38:37 10° N 19:38:37 10° N 19:38:37 10° N visible
25 Jan 6.0 18:58:34 10° N 18:59:20 13° NNE 18:59:20 13° NNE visible
26 Jan 5.9 18:19:05 10° NNE 18:20:12 13° NNE 18:20:12 13° NNE visible
26 Jan 6.2 19:59:07 10° NNW 20:00:15 17° NNW 20:00:15 17° NNW visible
